Geosat 1

operational
NORAD ID: 15595 Int'l Des: 1985-021 Owner: NAVAIR Country: US
LEOCIRCULARRETROGRADE

关于 Geosat 1

正在加载描述...

实时位置

正在加载3D地球...

即将过境

高度历史

Altitude vs Time

uPlot chart will show altitude changes over time

两行轨道根数

1 15595U 85021A 26063.38725623 .00000425 00000-0 17803-3 0 9997
2 15595 108.0478 223.3128 0002487 261.4482 98.6378 14.39908332147683
Epoch: Mar 4, 2026 • Age: 19 hours

当前状态

高度 777.4 km
速度 7.47 km/s
星下点 -52.51°S, 161.04°E
发射日期 Mar 13, 1985
运行时间 40.9 years
类型 other

技术详情

分类 Payload
质量 636.00 kg
干质量 598.00 kg
总质量 636.00 kg
长度 1.20 m
直径 1.10 m
跨度 7.00 m
形状 Oct Cyl + 8 Pan + Ant
制造商 APL
平台类型 Geosat
阶段状态 In Orbit
所有者/国家 NAVAIR/US

大型星座

Loading constellations...